Weather History for China Lake, CA

Change the Weather History Date:

Friday, December 21, 2012

  Actual Average Record
Temperature  
Mean Temperature 32 °F -  
Max Temperature 48 °F 54 °F 68 °F (2004)
Min Temperature 15 °F 29 °F 15 °F (2012)
Degree Days  
Heating Degree Days 34    
Moisture  
Dew Point 2 °F    
Average Humidity 31    
Maximum Humidity 49    
Minimum Humidity 18    
Precipitation  
Precipitation 0.00 in - - ()
Sea Level Pressure  
Sea Level Pressure 30.19 in    
Wind  
Wind Speed 4 mph (SW)    
Max Wind Speed 9 mph    
Max Gust Speed -    
Visibility 10 miles    
Events      
Averages and records for this station are not official NWS values.
T = Trace of Precipitation, MM = Missing Value Source: NWS Daily Summary

Daily Weather History Graph

Daily Weather History Graph

Search for Another Location

Airport:

Trip Planner

Search our weather history database for the weather conditions in past years. The results will help you decide how hot, cold, wet, or windy it might be!

Date:

Astronomy

Dec. 21, 2012 Rise Set
Actual Time 6:56 AM PST 4:41 PM PST
Civil Twilight 6:28 AM PST 5:09 PM PST
Nautical Twilight 5:56 AM PST 5:41 PM PST
Astronomical Twilight 5:25 AM PST 6:13 PM PST
Moon 12:23 PM PST 12:56 AM PST
Length of Visible Light 10h 41m
Length of Day
9h 44m
Waxing Gibbous, 66% of the Moon is Illuminated
Dec 21
Waxing Gibbous
Dec 28
Full
Jan 4
Last Quarter
Jan 11
New
Jan 18
First Quarter

Hourly Weather History & Observations

Time (PST) Temp. Windchill Dew Point Humidity Pressure Visibility Wind Dir Wind Speed Gust Speed Precip Events Conditions
12:56 AM 21.0 °F 12.4 °F -2.9 °F 35% 30.25 in 10.0 mi SSW 6.9 mph - N/A   Clear
1:56 AM 19.0 °F - -2.9 °F 38% 30.24 in 10.0 mi Calm Calm - N/A   Clear
2:56 AM 19.0 °F 11.1 °F -2.0 °F 40% 30.22 in 10.0 mi SSW 5.8 mph - N/A   Clear
3:56 AM 19.0 °F 10.0 °F -2.0 °F 40% 30.20 in 10.0 mi SSW 6.9 mph - N/A   Clear
4:56 AM 15.1 °F - -5.1 °F 41% 30.22 in 10.0 mi Calm Calm - N/A   Clear
5:56 AM 17.1 °F 10.0 °F -2.0 °F 43% 30.23 in 10.0 mi SW 4.6 mph - N/A   Clear
6:56 AM 15.1 °F 7.7 °F -0.9 °F 49% 30.24 in 10.0 mi SW 4.6 mph - N/A   Clear
7:56 AM 21.9 °F - -0.0 °F 38% 30.24 in 10.0 mi Calm Calm - N/A   Clear
8:56 AM 26.1 °F - -0.0 °F 32% 30.25 in 10.0 mi Calm Calm - N/A   Clear
9:56 AM 34.0 °F - 1.9 °F 26% 30.24 in 10.0 mi Calm Calm - N/A   Clear
10:56 AM 39.0 °F - 1.9 °F 21% 30.21 in 10.0 mi Calm Calm - N/A   Clear
11:56 AM 43.0 °F 41.3 °F 3.0 °F 19% 30.18 in 10.0 mi NNE 3.5 mph - N/A   Clear
12:56 PM 46.0 °F - 3.9 °F 18% 30.14 in 10.0 mi Calm Calm - N/A   Clear
1:56 PM 48.9 °F - 6.1 °F 18% 30.12 in 10.0 mi NE 3.5 mph - N/A   Clear
2:56 PM 48.9 °F - 7.0 °F 18% 30.12 in 10.0 mi Calm Calm - N/A   Clear
3:56 PM 48.0 °F - 6.1 °F 18% 30.12 in 10.0 mi NW 4.6 mph - N/A   Clear
4:56 PM 41.0 °F 37.1 °F 3.9 °F 21% 30.14 in 10.0 mi West 5.8 mph - N/A   Clear
5:56 PM 36.0 °F 29.6 °F 3.0 °F 25% 30.16 in 10.0 mi WSW 8.1 mph - N/A   Clear
6:56 PM 28.9 °F 21.9 °F 1.0 °F 30% 30.18 in 10.0 mi South 6.9 mph - N/A   Clear
7:56 PM 30.9 °F 22.8 °F 3.0 °F 31% 30.17 in 10.0 mi SSW 9.2 mph - N/A   Clear
8:56 PM 30.0 °F 23.2 °F 3.9 °F 33% 30.17 in 10.0 mi SSW 6.9 mph - N/A   Clear
9:56 PM 28.9 °F 20.4 °F 5.0 °F 36% 30.17 in 10.0 mi SSW 9.2 mph - N/A   Clear
10:56 PM 24.1 °F - 1.9 °F 38% 30.16 in 10.0 mi Calm Calm - N/A   Clear
11:56 PM 23.0 °F - 3.9 °F 44% 30.16 in 10.0 mi Calm Calm - N/A   Clear